Location: Ab? ar R?sh Ba?r?
(24.1861°N, 32.8847°E)
Time: 10:00:11
(UTC+00:00)

H-2A R/B - Pass Details

Date: 24 October 2021
Orbit: 732 x 837 km, 98.2° (Epoch: 03 December)

Event Time Altitude Azimuth Distance (km) Brightness Sun altitude
Rises 15:47:42 0° 158° (SSE) 3,306 5.2 -8.3°
Reaches altitude 10° 15:50:01 10° 155° (SSE) 2,391 4.4 -8.8°
Maximum altitude 15:55:15 61° 76° (ENE) 934 2.2 -10.0°
Drops below altitude 10° 16:00:35 10° 357° (N) 2,443 4.6 -11.2°
Sets 16:02:59 0° 354° (N) 3,384 5.3 -11.7°
